Location: Newark
(49.8969°N, 3.3422°E)
Time: 16:56:28
(UTC+00:00)

A-11 Canister half - Pass Details

Date: 25 January 2020
Orbit: 1517 x 1683 km, 47.2° (Epoch: 17 February)

Event Time Altitude Azimuth Distance (km) Brightness Sun altitude
Exits shadow 05:02:45 36° 257° (WSW) 2,227 9.3 -23.4°
Maximum altitude 05:06:01 49° 210° (SSW) 1,887 9.2 -22.9°
Drops below altitude 10° 05:14:50 10° 139° (SE) 3,714 11.6 -21.5°
Sets 05:18:02 0° 134° (SE) 4,714 12.4 -21.0°
